Tracking 28790 objects as of 18-Apr-2024
HD Live streaming from Space Station
objects crossing your sky now

SL-8 R/B

Track SL-8 R/B now!
10-day predictions


NORAD ID: 22081
Int'l Code: 1992-053B
Perigee: 758.9 km
Apogee: 811.6 km
Inclination: 74.0 °
Period: 100.4 minutes
Semi major axis: 7156 km
RCS: 7.4081 m2 (large)
Launch date: August 12, 1992
Source: Commonwealth of Independent States (former USSR) (CIS)
Launch site: PLESETSK MISSILE AND SPACE COMPLEX (PKMTR)

Note: This is a ROCKET BODY
Your satellite tracking list
Your tracking list is empty




NASA's NSSDC Master Catalog

Two Line Element Set (TLE):
1 22081U 92053B   24109.50227783  .00000627  00000-0  23193-3 0  9998
2 22081  74.0449 193.2246 0036852 270.9125  88.7804 14.34092000656702
Source of the keplerian elements: AFSPC